Dewpoint
15 17 19 19 13 7 6 6 7 8 8 8 8 6 5 4 4 5 4 4 1 1 2 4 7 7 46 50 51 51 54 54 54 54 55 56 57 57 57 57 58 59 59 60 61 61 62 62 63 64 64 64 64 64 65 64 65 64 64 66 67 68 67 66 66 66 66 66 66 66 66 66 66 65 65 66 66 66 66 66 66 65 66 67 67 65
13 17 19 18 12 7 6 7 10 7 7 7 8 7 5 5 4 5 4 3 -0 9 4 6 6 16 46 49 51 52 53 53 54 54 55 56 57 57 56 56 57 59 60 61 60 61 62 62 63 63 63 64 63 63 64 65 66 66 67 67 67 67 67 67 67 67 67 66 66 65 65 66 66 65 64 64 65 65 66 66 67 67 67 66 65 65
13 15 18 16 10 7 6 6 9 10 8 6 7 7 7 5 5 5 4 2 -1 1 6 5 5 7 47 49 51 52 52 53 54 54 54 56 57 57 57 56 57 58 59 60 60 61 62 62 62 63 63 63 63 63 64 65 66 66 66 67 67 67 67 67 67 67 66 66 66 65 65 65 64 65 65 65 66 66 66 66 66 65 64 64 63 63
16 15 17 15 10 6 6 6 7 9 11 10 9 9 8 6 3 3 3 1 3 8 10 7 5 7 45 49 50 53 53 53 55 54 55 57 57 57 57 56 57 58 58 58 59 60 62 62 62 62 62 62 63 63 64 64 65 66 66 67 67 67 66 66 66 66 66 66 66 66 66 66 65 64 66 64 64 65 65 64 64 63 63 63 62 62
16 15 16 12 9 6 7 8 8 11 10 11 8 7 6 5 4 1 3 1 3 5 10 7 9 9 43 47 49 51 54 55 56 55 56 57 57 57 57 58 57 57 58 58 60 61 61 62 62 62 62 63 63 63 63 64 65 66 66 67 66 66 66 66 66 66 67 66 65 66 65 64 64 64 64 64 64 65 65 63 62 62 62 62 62 62
16 13 13 10 8 8 8 8 8 9 10 10 9 8 6 5 3 2 2 6 10 10 6 6 8 13 39 46 47 49 52 54 55 54 55 55 55 56 56 56 58 58 59 59 60 61 61 62 62 62 62 62 62 63 63 64 64 66 66 66 66 66 66 66 66 66 66 65 65 64 62 61 62 62 63 63 64 63 63 63 62 62 62 62 62 62
15 11 9 9 9 9 9 7 6 5 7 12 8 7 6 5 5 4 1 4 10 9 6 12 7 12 41 42 44 49 52 53 54 53 53 54 55 56 56 56 57 58 59 59 60 62 62 62 62 62 63 63 62 64 65 65 65 66 66 66 66 66 66 66 66 66 66 65 64 63 62 62 62 61 60 62 64 64 63 62 61 62 62 62 63 62
15 9 8 9 9 9 8 7 4 3 5 5 7 7 6 5 4 3 6 7 14 19 16 4 7 9 32 40 43 49 52 53 54 53 54 55 55 56 57 57 57 58 59 60 61 62 63 62 62 62 63 64 64 66 66 66 66 66 66 66 66 66 66 66 66 66 65 64 63 63 62 62 62 61 61 63 64 65 63 62 62 62 62 63 63 62
17 8 7 8 8 7 6 6 5 4 3 5 6 6 5 4 3 4 9 10 18 11 9 12 6 7 18 43 48 50 50 52 53 54 54 55 56 57 57 59 59 59 60 60 61 62 63 62 62 63 63 65 66 66 65 65 65 66 66 66 66 66 66 66 66 65 65 64 63 62 62 62 62 62 62 63 65 63 62 62 62 62 62 63 63 62
13 12 7 7 7 6 6 6 6 5 4 5 6 6 5 5 6 8 11 6 16 12 11 11 8 7 26 45 46 47 48 50 51 53 54 55 55 56 57 58 59 59 60 61 61 62 63 62 62 63 64 65 65 65 65 65 65 66 66 65 65 65 66 66 66 65 65 64 64 63 62 61 62 62 62 63 63 62 62 61 61 62 62 62 62 62
12 19 15 6 5 6 8 8 6 6 6 7 6 4 5 8 13 14 15 12 17 12 14 10 8 5 22 43 45 44 44 47 51 52 54 54 54 55 56 57 58 59 60 60 61 62 63 63 62 63 64 64 65 65 65 65 66 66 66 65 65 66 66 66 65 64 64 63 63 62 62 61 61 62 62 63 61 61 60 60 61 61 61 61 61 61
10 10 10 7 10 8 9 9 8 8 6 4 3 3 8 11 13 14 17 19 11 15 14 9 6 3 5 36 44 45 44 46 51 52 52 53 53 54 55 56 57 59 60 60 60 61 60 63 62 63 64 64 64 65 65 65 66 65 65 66 65 66 65 65 64 63 63 63 63 62 62 62 62 63 62 61 60 60 60 61 61 61 61 60 60 59
10 8 8 8 18 9 8 8 8 8 5 2 3 7 8 10 8 8 8 7 12 13 13 4 4 10 7 32 43 44 43 46 50 52 53 53 54 54 55 56 57 59 60 60 60 61 61 62 62 63 64 64 64 64 65 65 65 65 65 65 65 64 64 63 63 62 63 62 62 62 61 62 62 62 61 60 60 60 58 59 60 60 59 59 59 58
13 7 7 7 9 13 8 7 7 6 3 2 2 10 9 8 7 7 12 13 14 17 12 14 8 8 16 14 42 44 44 46 49 52 54 54 54 54 55 56 57 58 59 59 61 62 62 62 62 63 63 64 64 64 65 65 65 65 65 64 64 63 63 63 63 63 63 63 63 63 62 62 62 61 60 59 59 60 60 59 59 59 59 58 58 58
14 8 5 7 7 9 9 6 4 6 5 2 3 2 18 12 15 7 12 11 13 13 15 11 11 12 6 19 38 43 46 47 48 51 54 55 55 54 55 56 56 58 58 59 61 62 62 62 62 62 63 64 64 64 64 64 65 65 64 64 63 63 63 63 63 63 62 62 62 62 61 60 59 59 59 60 60 59 59 59 59 59 58 58 58 58
9 11 7 7 14 8 7 6 5 3 1 2 2 3 5 12 20 12 17 12 14 10 12 15 13 17 13 29 31 41 46 46 47 51 53 54 54 55 56 56 56 57 57 59 61 61 62 62 62 63 63 63 63 64 64 64 64 64 64 63 63 62 63 63 63 62 62 62 62 60 60 59 60 60 59 59 59 59 59 59 58 58 58 57 58 59
9 14 7 7 8 6 6 6 5 2 10 6 1 4 4 14 8 16 15 27 19 16 18 19 18 17 24 25 32 42 44 44 48 52 53 54 54 55 55 55 56 56 57 58 61 61 62 62 63 63 63 63 63 64 64 64 64 64 63 62 62 62 63 62 62 61 61 61 60 59 59 59 59 59 58 58 59 59 59 58 58 58 58 58 58 59
17 16 8 7 7 5 6 5 4 1 3 3 3 3 5 9 17 19 15 14 12 17 16 15 11 13 15 17 33 41 42 41 45 51 53 54 54 54 55 55 56 56 56 58 61 62 62 63 63 63 63 63 63 63 63 63 64 63 63 62 62 62 61 60 60 60 60 60 60 59 59 59 59 58 58 58 58 59 58 58 58 58 57 57 58 58
19 12 9 9 6 4 6 11 7 8 1 1 2 6 2 13 9 18 18 10 9 8 15 13 16 16 11 22 27 36 38 40 43 51 52 53 54 55 55 56 56 56 57 59 61 62 62 62 62 62 62 63 63 63 63 63 63 63 63 62 62 61 60 60 60 60 60 59 59 59 59 59 59 59 58 58 58 58 57 57 57 57 57 56 56 56
23 22 9 6 8 7 9 7 12 10 3 -0 1 4 5 12 19 13 16 20 16 15 9 15 9 14 16 23 27 28 35 44 47 50 50 51 54 55 56 56 56 56 58 59 59 61 62 62 62 62 62 62 62 63 63 63 63 62 62 62 61 60 60 60 59 59 58 58 58 58 58 59 58 58 58 58 57 57 57 57 57 56 56 55 56 56
20 28 16 10 12 9 9 11 9 9 5 -1 3 6 5 21 19 11 24 12 13 16 17 14 10 16 23 23 27 30 40 45 47 48 50 51 53 55 56 56 56 58 59 60 60 60 61 62 62 62 62 63 63 63 62 62 62 62 62 61 60 59 59 59 58 58 58 58 58 58 58 58 57 57 57 57 57 57 57 57 56 56 56 56 56 56
25 22 22 14 11 9 9 9 7 5 1 2 13 12 5 7 8 4 15 13 21 16 15 10 21 24 30 35 30 33 42 45 45 47 49 50 53 55 57 57 57 58 59 60 59 59 58 59 62 63 63 63 63 62 62 62 62 61 60 60 60 59 58 58 58 58 58 57 57 57 57 56 56 56 56 56 56 56 56 56 56 55 55 55 55 53
33 29 23 18 13 11 7 5 6 4 1 0 3 9 1 12 12 11 12 15 13 13 18 19 14 20 35 39 30 33 39 44 45 47 48 49 52 55 56 57 58 59 59 59 59 59 59 60 61 62 62 62 62 62 61 61 61 60 59 59 59 58 57 58 58 57 57 57 57 56 56 56 56 57 57 57 56 56 55 55 55 55 54 54 54 54
36 23 19 13 12 8 6 4 5 5 8 3 3 5 0 7 7 19 20 22 13 19 10 14 11 21 41 45 40 36 36 40 45 46 48 50 53 55 55 57 58 59 59 60 59 59 59 59 59 61 61 61 61 61 61 61 60 59 59 58 58 57 57 57 57 56 56 56 56 56 56 56 56 56 56 55 56 55 55 55 54 55 54 55 52 52
21 23 18 14 11 9 8 10 6 5 7 12 11 9 7 6 3 17 22 27 13 23 23 17 13 24 37 45 35 41 40 41 43 46 49 51 54 55 56 57 58 59 60 59 59 58 58 57 59 60 60 60 61 61 61 60 59 58 58 57 57 57 57 56 56 56 56 56 56 56 56 56 56 55 55 55 55 55 56 56 55 54 52 52 51 51
21 28 24 17 14 11 9 9 9 9 9 16 18 6 4 4 7 10 11 18 12 22 17 22 28 36 41 38 39 45 47 45 45 49 51 52 54 55 57 58 58 59 59 59 58 58 57 57 59 59 60 60 61 61 60 59 58 58 57 57 56 56 56 55 55 55 55 56 56 56 55 55 55 55 55 55 55 55 55 55 55 53 53 51 50 50
27 31 27 24 19 19 18 16 18 14 16 9 8 8 8 6 9 18 28 20 18 20 14 25 34 35 35 36 39 44 49 49 50 52 52 53 55 56 57 58 58 58 59 58 58 58 57 58 59 59 59 60 61 60 60 59 58 57 56 56 55 55 55 55 55 55 55 55 55 55 55 55 55 55 55 54 54 54 54 53 53 52 51 51 49 48
31 21 27 30 28 18 13 19 21 11 15 13 18 11 8 8 18 25 16 21 28 21 13 27 37 36 35 35 46 49 50 50 51 53 54 55 55 56 56 56 55 57 58 58 58 57 56 57 58 59 59 60 60 60 59 58 57 56 55 54 54 54 54 55 54 54 55 55 54 54 54 55 55 54 54 53 53 53 52 53 52 51 50 50 49 48
31 23 25 28 30 20 9 15 12 9 10 17 11 21 14 9 22 24 24 28 27 26 25 32 37 35 34 35 46 49 50 50 51 53 54 55 56 56 56 56 56 56 57 57 57 57 56 57 57 58 59 59 59 59 58 57 56 55 54 54 54 54 54 54 54 54 54 54 54 54 54 54 54 54 53 53 52 52 52 52 50 51 50 49 48 48
24 21 30 28 26 30 20 11 13 7 11 9 9 15 15 15 22 29 30 27 28 27 31 37 37 35 34 34 46 49 51 51 51 53 54 55 55 55 55 55 55 55 56 57 57 57 57 57 58 58 58 58 59 58 56 55 55 54 54 53 53 53 54 54 53 54 54 53 53 53 53 53 53 53 53 52 52 51 50 50 50 48 47 47 46 46
28 23 28 30 22 28 33 34 13 7 10 15 10 11 17 17 21 24 27 28 27 26 29 31 31 27 34 39 48 49 50 52 53 53 53 53 54 54 54 54 54 55 56 57 58 58 57 57 57 57 57 58 58 56 55 54 54 53 53 53 53 53 53 53 53 53 53 53 53 53 53 53 53 52 52 52 52 51 51 50 49 49 48 47 45 45
32 23 31 27 18 25 33 29 34 29 15 17 16 15 23 21 20 22 16 29 25 23 26 28 26 33 44 47 48 48 49 51 51 52 52 52 53 53 53 53 55 55 56 57 57 57 57 57 57 57 57 58 57 55 54 54 53 53 52 52 52 52 53 53 53 53 53 53 53 53 52 52 52 52 51 51 51 50 50 49 48 48 47 47 46 45
27 26 22 24 24 21 31 31 31 33 27 18 19 23 25 27 24 27 28 28 31 32 23 19 22 41 46 48 46 46 47 48 50 53 54 54 54 53 52 53 55 55 56 57 57 56 57 57 57 57 58 57 56 55 54 53 53 52 52 52 52 52 52 52 52 52 53 53 53 52 52 51 51 51 51 50 50 49 49 48 47 46 46 46 45 43
27 28 23 28 22 19 31 33 32 27 19 20 32 42 37 29 25 26 25 29 31 30 26 28 34 41 45 47 46 47 48 49 51 53 56 55 55 54 53 54 55 55 56 57 57 56 56 58 57 57 57 56 55 54 53 53 52 52 52 52 52 52 52 52 52 53 53 53 53 52 51 51 50 50 50 50 49 49 48 48 47 47 46 45 44 43
30 27 23 25 23 21 28 30 26 18 19 37 40 42 42 37 30 29 33 28 33 28 30 36 41 41 42 45 48 50 51 53 54 54 55 56 55 55 54 54 55 55 56 57 57 57 57 58 57 57 56 55 55 54 52 52 52 52 51 51 51 51 51 51 51 52 53 52 52 51 51 50 50 49 49 49 48 48 47 46 46 45 45 44 43 42
23 23 24 20 26 28 26 23 20 20 33 40 41 42 43 40 32 28 27 31 31 27 29 29 39 43 44 46 49 51 52 53 53 54 55 56 55 55 54 54 55 55 56 56 57 57 57 57 56 56 56 55 53 52 51 51 51 51 51 51 51 51 51 51 51 52 52 51 51 50 50 50 49 48 48 48 47 47 46 46 45 45 45 44 43 42
34 29 25 20 27 23 23 26 24 32 31 35 35 42 40 36 37 26 19 21 34 29 26 24 33 43 46 47 49 50 50 49 49 49 54 55 55 55 55 55 56 56 57 57 57 57 56 56 55 54 53 52 52 51 51 50 50 50 50 50 50 50 51 51 51 51 51 50 50 50 50 49 48 48 48 47 47 46 46 45 45 44 43 42 42 41
28 23 28 26 21 29 26 23 25 24 19 27 37 44 46 45 46 38 28 24 37 31 26 24 27 45 46 46 48 49 49 47 44 46 51 54 55 56 55 55 57 58 58 57 57 56 55 55 55 54 52 51 51 50 50 50 52 51 50 50 50 49 50 50 50 50 50 50 50 49 48 48 48 47 47 46 46 46 45 44 44 44 44 42 41 38
28 26 28 28 23 23 22 22 22 20 23 32 39 43 44 45 45 38 27 21 34 45 36 26 27 44 45 45 46 46 44 43 44 45 52 54 55 57 57 57 57 57 57 56 56 55 54 55 54 53 52 50 50 50 50 50 50 50 49 49 49 49 49 49 49 49 49 49 48 48 48 48 47 47 46 46 45 45 44 44 44 44 42 40 39 38
29 23 26 22 19 20 23 19 19 21 26 33 41 42 41 42 43 26 17 24 40 47 46 41 28 44 45 45 46 44 41 38 42 45 53 54 56 57 56 55 55 56 56 56 55 55 54 53 53 51 51 50 50 49 49 50 50 50 49 49 48 49 48 49 49 49 48 48 48 47 47 48 47 46 45 45 44 44 44 43 41 40 40 39 38 39
22 21 21 21 22 23 22 22 26 26 34 42 41 42 43 44 33 23 21 30 41 47 49 48 39 44 45 46 46 42 44 44 44 51 54 55 56 56 56 55 55 55 55 55 55 51 52 52 52 51 51 50 50 50 49 49 49 49 48 48 47 47 48 49 49 49 48 48 47 47 47 47 46 45 44 44 44 43 42 41 40 40 39 39 39 37
20 20 19 19 19 19 20 24 23 29 36 43 42 45 43 36 24 25 36 45 47 48 50 49 46 48 47 47 46 47 48 51 51 53 54 55 56 56 55 55 55 55 55 54 52 52 52 52 52 51 51 50 50 49 49 49 49 49 48 47 47 47 48 48 48 48 47 47 47 47 46 45 44 44 44 43 42 41 40 41 41 40 39 37 36 34
24 19 20 19 20 18 19 20 25 27 33 43 42 38 39 31 33 42 45 47 49 49 49 49 48 49 51 49 49 50 51 51 52 53 54 55 55 54 54 54 54 54 54 53 53 52 52 53 53 52 51 50 49 49 49 48 48 48 47 47 47 48 48 48 47 47 47 46 46 46 45 44 44 43 42 42 41 41 41 41 40 38 37 36 36 35
25 17 19 19 22 19 17 16 21 31 36 45 40 32 44 42 43 47 46 46 49 50 49 48 49 50 50 50 50 50 50 50 51 53 54 54 54 54 54 54 54 54 54 53 53 52 52 52 52 50 50 49 49 49 49 48 49 48 47 48 49 49 49 47 47 46 46 46 45 45 44 43 42 42 42 42 42 42 41 39 39 38 38 38 36 34
29 32 33 28 35 31 32 34 41 45 46 47 47 47 47 48 49 47 48 48 48 48 50 49 49 50 51 48 49 49 50 50 51 53 54 53 53 53 53 53 54 53 53 53 52 52 53 52 50 49 48 48 48 49 50 50 49 47 47 48 48 48 48 47 46 45 45 44 44 43 42 42 42 42 42 42 42 40 40 39 39 39 38 37 35 34
37 37 40 40 40 42 43 46 48 47 46 46 47 48 47 48 49 49 49 48 49 49 50 50 51 51 50 49 46 48 49 50 51 53 54 54 53 53 53 53 53 53 53 53 52 51 51 51 49 48 48 48 48 48 49 49 48 47 47 47 47 47 46 46 45 44 44 43 42 41 41 41 41 41 41 41 41 40 39 39 39 38 37 36 35 36
40 37 37 36 37 33 32 44 45 46 47 46 46 47 48 48 48 49 49 49 50 50 50 51 51 50 50 49 47 48 51 53 53 53 54 54 53 53 53 53 52 52 51 51 51 50 50 49 48 47 47 47 47 47 48 48 49 48 47 46 47 46 46 44 44 44 43 42 41 41 40 40 40 40 40 40 40 40 40 39 38 38 37 37 36 36
38 41 35 38 38 34 38 43 46 48 48 47 46 46 46 47 47 48 49 49 50 50 50 50 50 49 49 47 47 48 52 53 53 53 53 53 52 52 52 52 52 51 51 50 50 50 49 49 48 47 47 47 49 49 49 49 48 47 47 47 47 46 45 44 43 43 42 41 41 40 39 39 37 38 37 37 38 39 39 38 38 37 37 37 36 35
41 43 34 38 39 41 43 43 45 45 44 45 47 47 47 48 48 48 49 49 49 49 48 47 49 49 49 48 49 51 53 53 52 52 52 52 52 52 52 52 51 51 50 50 49 49 49 48 48 47 47 48 49 48 48 48 48 48 46 47 46 45 44 43 42 42 41 40 39 38 38 38 36 35 34 33 33 33 34 35 35 34 33 35 36 37
41 38 41 35 34 33 35 39 44 36 36 43 46 47 47 47 49 49 49 49 49 49 49 48 47 48 48 48 47 50 53 53 52 52 52 52 52 52 52 51 51 50 50 50 49 49 49 48 48 47 47 47 48 48 48 46 46 46 46 46 45 45 44 43 42 41 39 38 38 37 36 36 34 33 33 32 31 31 32 32 35 34 31 32 34 34
42 41 38 32 34 34 41 44 46 44 44 46 46 46 46 47 48 46 47 47 47 49 49 47 47 46 45 47 47 49 52 53 52 52 52 52 52 52 52 51 51 50 50 49 49 49 49 48 48 48 47 47 47 47 47 46 46 46 46 46 45 44 44 43 41 39 38 37 36 36 36 35 33 32 31 30 30 30 29 30 31 33 34 34 33 34